Overview Statistics Trail Chart Weather Telemetry Raw packets
 

This is the latest recevied weather packets stored in our database for station/object KO6HRZ. If no packets are shown the sender has not sent any weather packets the latest 10 day(s).

<< 4 5 6 7 8 9 10 >>
Time Temp. Humidity Pressure Rain* Wind** Luminosity Snow
1788590390 15.56° C 76% 1012.1 hPa 0 mm - 0 W/m² -
1788589787 15.56° C 76% 1012.2 hPa 0 mm - 0 W/m² -
1788589187 15.56° C 76% 1012.2 hPa 0 mm - 0 W/m² -
1788588587 15.56° C 75% 1012.4 hPa 0 mm - 0 W/m² -
1788587983 16.11° C 76% 1012.4 hPa 0 mm - 0 W/m² -
1788587383 16.11° C 75% 1012.4 hPa 0 mm - 0 W/m² -
1788586778 16.11° C 75% 1012.2 hPa 0 mm - 0 W/m² -
1788586175 16.67° C 74% 1012.3 hPa 0 mm - 0 W/m² -
1788585581 16.67° C 73% 1012.6 hPa 0 mm - 0 W/m² -
1788584973 17.22° C 72% 1012.4 hPa 0 mm - 0 W/m² -
1788584370 17.78° C 70% 1012.5 hPa 0 mm - 0 W/m² -
1788583766 17.78° C 69% 1012.5 hPa 0 mm - 0 W/m² -
1788583167 17.78° C 66% 1012.5 hPa 0 mm - 0 W/m² -
1788582566 18.33° C 66% 1012.3 hPa 0 mm - 0 W/m² -
1788581962 18.33° C 64% 1012.2 hPa 0 mm - 0 W/m² -
1788581358 18.89° C 63% 1012.2 hPa 0 mm - 0 W/m² -
1788580757 18.89° C 62% 1012.2 hPa 0 mm - 0 W/m² -
1788580156 19.44° C 62% 1011.9 hPa 0 mm - 0 W/m² -
1788579556 20° C 61% 1011.9 hPa 0 mm - 0 W/m² -
1788578956 20° C 61% 1011.8 hPa 0 mm - 0 W/m² -
1788578352 20.56° C 60% 1011.6 hPa 0 mm - 0 W/m² -
1788577750 20.56° C 59% 1011.5 hPa 0 mm - 0 W/m² -
1788577149 21.11° C 58% 1011.4 hPa 0 mm - 0 W/m² -
1788576548 21.11° C 56% 1011.4 hPa 0 mm - 0 W/m² -
1788575944 21.67° C 55% 1011.5 hPa 0 mm - 1 W/m² -

* Rain latest hour (hover to see other rain measurements)
** Current wind speed in m/s (hover to see current wind gust speed)